星链-6239 (STARLINK-6239 )

导读

STARLINK-6239是美国太空探索技术公司(SpaceX)星链(Starlink)互联网星座中的一颗卫星,于2023年5月4日发射升空。作为星链星座组网的组成部分,它主要为全球范围内提供低延迟、高速率的卫星互联网接入服务,进一步补充和完善星链星座的全球覆盖能力,推动卫星互联网的普及应用。

基本信息
目录编号:
56423
目录名称:
STARLINK-6239
国际标识:
2023-061BB
轨道中心:
EARTH
卫星名称:
星链-6239
卫星全名:
星链-6239 (STARLINK-6239 )
卫星状态:
在轨 (已飞行1226 天)
发射日期:
2023-05-04 UTC
国别 :
美国 (US)
星等 :
--
该卫星已列入 空间交会检测服务 Space Conjunction Data Service (SCDS) ,当前飞行风险评估等级: 无高风险
轨道信息
数据来源 国际轨道数据
星历时间: 2026-09-09T17:15:39+0800
1天前
查看轨道信息
半长轴: 6861.172km
偏心率: 0.0001379
轨道倾角: 43.002°
近地点辐角 341.298°
升交点赤经 222.145°
平近点角 18.782°
近地点: 482.088km
远地点: 483.982km
周期: 94.266分钟
每日圈数: 15.27585
详细信息
固有亮度:
5
最大亮度:
2.5
卫星平台:
Starlink v1.5
覆盖范围:
全球
运营商:
太空探索技术公司
运营商所在国:
美国
制造商(研发单位):
太空探索技术公司
制造商所在国:
美国
使用方式:
暂无
卫星简介
星链(Starlink)计划是由太空探索技术公司(SpaceX)提出的一个巨型低轨卫星互联网星座项目,计划在2019年至2024年间在太空搭建由约1.2万颗卫星组成的“星链”网络,其中1584颗将部署在地球上空550千米处的近地轨道,并从2020年开始工作。该卫星仍在工作。
2D轨道图
3D轨道图
轨道高度分析图
轨道倾角分析图
轨道综合分析图
查看轨道综合分析图
交会数据列表
事件ID 空间交会对象 最接近时刻(TCA) 交会距离 交会风险概率(CRP) 交会风险指数(CRI) 操作
CDM_260912-015405-642305-864723
2026-09-12T
01:54:03+0000
0.915 km
远距离
2.775359E-5 中风险 0.64
CDM_260913-091505-642306-341321
2026-09-13T
09:15:16+0000
2.032 km
极远距离
1.598972E-6 低风险 0.39
与全量物体交会距离演化趋势
与全量物体交会风险概率演化趋势